Roseburg, OR

4:13 AM PST on November 17, 2019 (GMT -0800)
Roseburg Regional

Weather History for KRBG - September, 2019

Change the Weather History Date:

Saturday, September 28, 2019

  Actual Average Record
Temperature  
Mean Temperature 52 °F 62 °F  
Max Temperature 60 °F 75 °F 95 °F (1935)
Min Temperature 44 °F 49 °F 36 °F (1954)
Degree Days  
Heating Degree Days 13 4  
Month to date heating degree days 45 57  
Since 1 July heating degree days 50 78  
Cooling Degree Days 0 1  
Month to date cooling degree days 77 64  
Year to date cooling degree days 680 475  
Growing Degree Days 2 (Base 50)    
Moisture  
Dew Point 44 °F    
Average Humidity 70    
Maximum Humidity 93    
Minimum Humidity 47    
Precipitation  
Precipitation 0.20 in 0.04 in 1.03 in (1977)
Month to date precipitation 2.35 0.87  
Year to date precipitation 25.12 20.52  
Sea Level Pressure  
Sea Level Pressure 29.84 in    
Wind  
Wind Speed 4 mph (North)    
Max Wind Speed 15 mph    
Max Gust Speed 25 mph    
Visibility 9 miles    
Events Rain , Thunderstorm    
T = Trace of Precipitation, MM = Missing Value Source: NWS Daily Summary

Daily Weather History Graph

Daily Weather History Graph

Search for Another Location

Airport or City:

Astronomy

Sep. 28, 2019 Rise Set
Actual Time 7:07 AM PDT 7:00 PM PDT
Civil Twilight 6:38 AM PDT 7:28 PM PDT
Nautical Twilight 6:05 AM PDT 8:01 PM PDT
Astronomical Twilight 5:32 AM PDT 8:35 PM PDT
Moon 6:48 AM PDT (9/28) 7:30 PM PDT (9/28)
Length of Visible Light 12h 49m
Length of Day
11h 52m
New Moon, 0% of the Moon is Illuminated
Sep 28
New Moon
Oct 5
First Quarter
Oct 13
Full
Oct 21
Last Quarter
Oct 27
New

Hourly Weather History & Observations

Time (PDT) Temp. Dew Point Humidity Pressure Visibility Wind Dir Wind Speed Gust Speed Precip Events Conditions
12:53 AM 55.0 °F 46.0 °F 72% 29.87 in 10.0 mi NW 5.8 mph - 0.00 in   Overcast
1:53 AM 55.0 °F 44.1 °F 67% 29.88 in 10.0 mi NW 8.1 mph - N/A   Overcast
2:53 AM 53.1 °F 45.0 °F 74% 29.88 in 10.0 mi North 3.5 mph - 0.00 in   Overcast
3:53 AM 51.1 °F 46.0 °F 83% 29.86 in 10.0 mi SSE 4.6 mph - N/A   Mostly Cloudy
4:53 AM 48.9 °F 46.0 °F 90% 29.84 in 10.0 mi SE 3.5 mph - N/A   Scattered Clouds
5:53 AM 50.0 °F 46.0 °F 86% 29.84 in 7.0 mi Calm Calm - 0.02 in Rain Light Rain
6:53 AM 50.0 °F 46.9 °F 89% 29.85 in 10.0 mi NNE 3.5 mph - 0.02 in   Overcast
7:53 AM 48.9 °F 46.0 °F 90% 29.85 in 10.0 mi SE 4.6 mph - N/A   Mostly Cloudy
8:53 AM 50.0 °F 46.9 °F 89% 29.85 in 10.0 mi SE 4.6 mph - N/A   Overcast
9:53 AM 51.1 °F 46.9 °F 86% 29.85 in 10.0 mi Calm Calm - 0.01 in Rain Light Rain
10:53 AM 53.1 °F 46.9 °F 80% 29.85 in 10.0 mi ESE 3.5 mph - 0.00 in   Mostly Cloudy
11:53 AM 57.0 °F 46.0 °F 67% 29.84 in 10.0 mi Calm Calm - N/A   Mostly Cloudy
12:08 PM 55.9 °F 45.0 °F 67% 29.83 in 10.0 mi Variable 4.6 mph - N/A   Overcast
12:16 PM 53.1 °F 46.0 °F 77% 29.83 in 1.5 mi West 4.6 mph - 0.07 in Rain Rain
12:27 PM 53.1 °F 44.1 °F 71% 29.83 in 2.5 mi Calm Calm - 0.09 in Rain Light Rain
12:34 PM 55.0 °F 43.0 °F 64% 29.83 in 10.0 mi Calm Calm - 0.09 in Rain Light Rain
12:53 PM 53.1 °F 45.0 °F 74% 29.83 in 3.0 mi WNW 10.4 mph - 0.12 in Rain Rain
1:53 PM 57.0 °F 44.1 °F 62% 29.81 in 10.0 mi Calm Calm - 0.03 in   Partly Cloudy
2:11 PM 54.0 °F 44.1 °F 69% 29.82 in 9.0 mi Variable 3.5 mph - 0.00 in Rain , Thunderstorm Light Rain
2:20 PM 55.0 °F 46.0 °F 72% 29.82 in 10.0 mi NNE 11.5 mph 17.3 mph 0.00 in Thunderstorm Thunderstorm
2:45 PM 54.0 °F 45.0 °F 72% 29.82 in 10.0 mi Calm Calm - 0.00 in   Mostly Cloudy
2:53 PM 57.0 °F 44.1 °F 62% 29.82 in 10.0 mi North 4.6 mph - 0.00 in   Scattered Clouds
3:53 PM 57.9 °F 45.0 °F 62% 29.81 in 10.0 mi WSW 4.6 mph - N/A   Mostly Cloudy
4:53 PM 57.9 °F 44.1 °F 60% 29.81 in 10.0 mi ENE 5.8 mph - 0.00 in   Overcast
5:53 PM 57.9 °F 37.0 °F 46% 29.82 in 10.0 mi WNW 8.1 mph 18.4 mph N/A   Clear
6:53 PM 55.9 °F 37.9 °F 51% 29.83 in 10.0 mi West 4.6 mph - N/A   Scattered Clouds
7:53 PM 55.0 °F 35.1 °F 47% 29.84 in 10.0 mi NW 4.6 mph - N/A   Mostly Cloudy
8:26 PM 52.0 °F 42.1 °F 69% 29.86 in 10.0 mi NNE 9.2 mph - N/A   Partly Cloudy
8:53 PM 50.0 °F 42.1 °F 74% 29.87 in 10.0 mi ENE 4.6 mph - N/A   Clear
9:53 PM 46.9 °F 41.0 °F 80% 29.88 in 10.0 mi SE 3.5 mph - N/A   Clear
10:53 PM 46.0 °F 41.0 °F 83% 29.88 in 10.0 mi Calm Calm - N/A   Clear
11:53 PM 45.0 °F 41.0 °F 86% 29.89 in 10.0 mi Calm Calm - N/A   Clear